KP4DJT Weather Reports


time (UTC)temp
F
wind
direction
speed
knots
gust
knots
rain 1hr
in
rain 24hr
in
rain mn
in
humidity
%
barometer
mb
20260507044218 55 84 0.9 1.7 0.00 0.00 0.00 55 1019.0
20260507043218 55 63 2.6 4.3 0.00 0.00 0.00 54 1018.8
20260507042218 55 33 1.7 4.3 0.00 0.00 0.00 54 1018.5
20260507041216 56 81 4.3 5.2 0.00 0.00 0.00 53 1018.2
20260507040217 56 85 3.5 5.2 0.00 0.00 0.00 53 1017.9
20260507035219 55 85 4.3 6.1 0.00 0.00 0.00 55 1018.0
20260507034219 55 86 1.7 2.6 0.00 0.00 0.00 55 1018.3
20260507033219 56 59 0.9 1.7 0.00 0.00 0.00 55 1018.2
20260507032219 56 19 0.0 0.0 0.00 0.00 0.00 54 1018.2
20260507031219 56 76 0.9 2.6 0.00 0.00 0.00 53 1018.0
20260507030217 57 74 2.6 2.6 0.00 0.00 0.00 53 1017.9
20260507025217 57 74 2.6 4.3 0.00 0.00 0.00 52 1017.7
20260507024237 58 60 1.7 3.5 0.00 0.00 0.00 51 1017.6
20260507023217 58 67 1.7 2.6 0.00 0.00 0.00 50 1017.5
20260507022240 59 52 1.7 3.5 0.00 0.00 0.00 50 1017.4
20260507021218 59 65 2.6 4.3 0.00 0.00 0.00 49 1017.2
20260507020217 59 46 2.6 4.3 0.00 0.00 0.00 48 1017.1
20260507015238 60 60 4.3 7.8 0.00 0.00 0.00 48 1016.9
20260507014217 60 64 3.5 5.2 0.00 0.00 0.00 47 1016.8
20260507013218 61 57 3.5 5.2 0.00 0.00 0.00 46 1016.6
20260507012218 61 55 4.3 7.8 0.00 0.00 0.00 46 1016.6
20260507011218 61 55 5.2 7.8 0.00 0.00 0.00 45 1016.5
20260507010238 62 47 4.3 6.1 0.00 0.00 0.00 45 1016.5
20260507005218 62 19 3.5 6.1 0.00 0.00 0.00 45 1016.3
20260507004218 62 43 5.2 7.0 0.00 0.00 0.00 45 1016.4
20260507003239 62 68 5.2 7.8 0.00 0.00 0.00 45 1016.3
20260507002219 62 65 5.2 7.0 0.00 0.00 0.00 46 1016.1
20260507001239 62 59 3.5 5.2 0.00 0.00 0.00 46 1016.1
20260507000219 62 18 3.5 5.2 0.00 0.00 0.00 46 1016.0
20260506235219 62 42 2.6 4.3 0.00 0.00 0.00 45 1016.0
20260506234216 63 74 4.3 6.1 0.00 0.00 0.00 45 1015.9
20260506233219 63 74 3.5 5.2 0.00 0.00 0.00 45 1015.7
20260506232220 63 72 6.1 9.6 0.00 0.00 0.00 45 1015.5
20260506231219 63 39 3.5 7.0 0.00 0.00 0.00 45 1015.6
20260506230220 63 64 4.3 7.8 0.00 0.00 0.00 45 1015.5
20260506225237 63 14 0.9 2.6 0.00 0.00 0.00 45 1015.4
20260506224217 63 81 7.0 10.4 0.00 0.00 0.00 45 1015.3
20260506223220 63 60 6.1 7.8 0.00 0.00 0.00 45 1015.1
20260506222220 63 97 5.2 7.0 0.00 0.00 0.00 46 1014.9
20260506221217 63 66 4.3 5.2 0.00 0.00 0.00 46 1014.9
20260506220217 62 50 3.5 6.1 0.00 0.00 0.00 45 1015.0
20260506215238 62 76 7.0 8.7 0.00 0.00 0.00 46 1015.1
20260506214238 62 79 5.2 7.0 0.00 0.00 0.00 46 1015.0
20260506213221 62 70 4.3 7.8 0.00 0.00 0.00 47 1015.2
20260506212218 61 26 5.2 9.6 0.00 0.00 0.00 48 1015.3
20260506211238 61 58 4.3 7.0 0.00 0.00 0.00 49 1015.4
20260506210218 61 90 7.0 9.6 0.00 0.00 0.00 50 1015.5
20260506205218 61 70 5.2 7.8 0.00 0.00 0.00 51 1015.6
20260506204218 61 60 5.2 8.7 0.00 0.00 0.00 50 1015.7
20260506203239 60 45 4.3 7.8 0.00 0.00 0.00 52 1015.8
20260506202219 60 48 6.1 7.8 0.00 0.00 0.00 52 1016.0
20260506201219 60 46 4.3 7.0 0.00 0.00 0.00 53 1016.0
20260506200219 60 44 6.1 9.6 0.00 0.00 0.00 51 1016.0
20260506195216 60 24 7.0 10.4 0.00 0.00 0.00 52 1015.9
20260506194219 60 23 4.3 7.8 0.00 0.00 0.00 53 1016.1
20260506193220 59 84 5.2 7.0 0.00 0.00 0.00 53 1016.2
20260506192220 59 74 6.1 9.6 0.00 0.00 0.00 54 1016.4
20260506191217 59 66 3.5 7.8 0.00 0.00 0.00 54 1016.5
20260506190217 59 54 3.5 6.1 0.00 0.00 0.00 54 1016.6
20260506185220 59 78 4.3 7.8 0.00 0.00 0.00 53 1016.5
20260506184220 58 68 4.3 8.7 0.00 0.00 0.00 54 1016.5
20260506183220 58 48 2.6 5.2 0.00 0.00 0.00 54 1016.7
20260506182217 58 97 7.0 11.3 0.00 0.00 0.00 53 1016.8
20260506181217 59 81 7.0 8.7 0.00 0.00 0.00 53 1016.8
20260506180238 58 56 4.3 7.8 0.00 0.00 0.00 53 1016.9
20260506175241 58 76 6.1 8.7 0.00 0.00 0.00 53 1017.0
20260506174218 58 84 6.1 9.6 0.00 0.00 0.00 53 1017.1
20260506173218 58 73 5.2 7.0 0.00 0.00 0.00 54 1017.3
20260506172218 58 94 5.2 9.6 0.00 0.00 0.00 53 1017.1
20260506171218 57 94 6.1 8.7 0.00 0.00 0.00 54 1017.1
20260506170218 57 98 7.8 12.2 0.00 0.00 0.00 53 1017.1
20260506165219 57 107 7.0 8.7 0.00 0.00 0.00 54 1017.2
20260506164239 57 103 7.8 11.3 0.00 0.00 0.00 54 1017.4
20260506163219 56 85 7.0 9.6 0.00 0.00 0.00 54 1017.4
20260506162239 55 87 8.7 13.0 0.00 0.00 0.00 56 1017.3
20260506161219 55 98 8.7 12.2 0.00 0.00 0.00 55 1017.4
20260506160216 54 86 7.8 12.2 0.00 0.00 0.00 57 1017.3
20260506155219 54 99 10.4 14.8 0.00 0.00 0.00 59 1017.2
20260506154220 53 79 7.8 11.3 0.00 0.00 0.00 61 1017.2
20260506153220 53 66 7.8 9.6 0.00 0.00 0.00 63 1017.1
20260506152217 53 78 5.2 7.0 0.00 0.00 0.00 63 1017.2
20260506151217 52 67 8.7 12.2 0.00 0.00 0.00 65 1017.3
20260506150220 51 82 8.7 11.3 0.00 0.00 0.00 68 1017.2
20260506145220 50 67 7.0 8.7 0.00 0.00 0.00 71 1017.0
20260506144217 50 53 5.2 7.0 0.00 0.00 0.00 73 1016.8
20260506143217 50 66 6.1 7.0 0.00 0.00 0.00 74 1016.6
20260506142218 50 62 3.5 5.2 0.00 0.00 0.00 74 1016.7
20260506141217 50 65 5.2 7.0 0.00 0.00 0.00 74 1016.7
20260506140218 50 73 6.1 8.7 0.00 0.00 0.00 75 1016.7
20260506135224 49 61 5.2 7.8 0.00 0.00 0.00 76 1016.9
20260506134238 49 51 6.1 7.0 0.00 0.00 0.00 77 1016.8
20260506133218 49 49 5.2 7.8 0.00 0.00 0.00 77 1016.9
20260506132238 49 40 4.3 8.7 0.00 0.00 0.00 78 1017.0
20260506131218 49 31 4.3 6.1 0.00 0.00 0.00 78 1016.9
20260506130218 49 56 5.2 7.8 0.00 0.00 0.00 78 1016.7
20260506125218 49 66 4.3 7.0 0.00 0.00 0.00 78 1016.7
20260506124218 49 63 5.2 8.7 0.00 0.00 0.00 79 1016.7
20260506123219 48 27 3.5 5.2 0.00 0.00 0.00 80 1016.3
20260506122219 48 30 5.2 7.8 0.00 0.00 0.00 80 1016.2
20260506121219 48 52 5.2 6.1 0.00 0.00 0.00 80 1015.8
20260506120219 48 54 4.3 6.1 0.00 0.00 0.00 80 1015.7
20260506115219 48 59 5.2 7.0 0.00 0.00 0.00 80 1015.7
20260506114239 48 53 3.5 6.1 0.00 0.00 0.00 80 1015.7
20260506113220 48 56 0.9 4.3 0.00 0.00 0.00 79 1015.5
20260506112220 48 50 2.6 4.3 0.00 0.00 0.00 78 1015.4
20260506111220 48 46 3.5 6.1 0.00 0.00 0.00 78 1015.2
20260506110220 48 42 4.3 7.0 0.00 0.00 0.00 78 1015.2
20260506105220 49 54 3.5 4.3 0.00 0.00 0.00 77 1015.2
20260506104220 49 39 3.5 6.1 0.00 0.00 0.00 77 1015.7
20260506103220 49 356 2.6 3.5 0.00 0.00 0.00 76 1016.0
20260506102220 49 64 4.3 7.8 0.00 0.00 0.00 76 1015.6
20260506101241 49 43 3.5 6.1 0.00 0.00 0.00 76 1015.7
20260506100221 49 51 3.5 4.3 0.00 0.00 0.00 76 1015.8
20260506095231 49 43 1.7 2.6 0.00 0.00 0.00 76 1015.5
20260506094241 49 9 3.5 5.2 0.00 0.00 0.00 75 1015.2
20260506093221 49 46 3.5 4.3 0.00 0.00 0.00 74 1014.6
20260506092221 49 72 2.6 2.6 0.00 0.00 0.00 74 1014.6
20260506091221 49 62 4.3 7.0 0.00 0.00 0.00 73 1014.6
20260506090221 49 48 3.5 7.0 0.00 0.00 0.00 73 1014.4
20260506085242 49 2 1.7 3.5 0.00 0.00 0.00 72 1014.4
20260506084221 49 59 3.5 6.1 0.00 0.00 0.00 72 1014.4
20260506083242 49 54 4.3 7.0 0.00 0.00 0.00 72 1014.1
20260506082222 49 35 1.7 3.5 0.00 0.00 0.00 71 1013.7
20260506081222 49 19 5.2 7.8 0.00 0.00 0.00 71 1013.5
20260506080222 49 30 4.3 7.8 0.00 0.00 0.00 70 1013.4
20260506073222 49 65 5.2 7.0 0.00 0.00 0.00 70 1013.2
20260506072216 49 68 3.5 5.2 0.00 0.00 0.00 71 1012.9
20260506071217 49 61 3.5 5.2 0.00 0.00 0.00 70 1012.9
20260506070217 49 56 4.3 5.2 0.00 0.00 0.00 70 1013.0
20260506062217 49 65 6.1 8.7 0.00 0.00 0.00 69 1013.2
20260506061217 49 56 3.5 4.3 0.00 0.00 0.00 69 1013.1
20260506060218 49 64 4.3 5.2 0.00 0.00 0.00 69 1012.9
20260506051218 50 65 6.1 10.4 0.00 0.00 0.00 66 1012.9
20260506050218 50 67 4.3 7.0 0.00 0.00 0.00 66 1012.8